User: anonymous   Login
Location: Fairmont
(43.6520°N, 94.4610°W)
Time: 11:12:13
(UTC-05:00)
Language:

Cosmos-2242 - Orbit

View from above orbital plane
View from above orbital plane
View from above satellite
View from above satellite

Ground track
Ground track

The orbit data is extracted from the following two-line orbital elements,

1 22626U 93024A   18174.19507312  .00000164  00000-0  15216-4 0  9995
2 22626  82.5225  52.0194 0018308 333.8603  26.1688 14.87811649361315
Epoch (UTC): 23 June 2018 04:40:54
Eccentricity: 0.0018308
inclination: 82.5225°
perigee height: 592 km
apogee height: 617 km
right ascension of ascending node: 52.0194°
argument of perigee: 333.8603°
revolutions per day: 14.87811649
mean anomaly at epoch: 26.1688°
orbit number at epoch: 36131

The dashed part of the orbit path shows where the satellite is in the earth's shadow,  

DLR